OpenBCM V1.08-5-g2f4a (Linux)

Packet Radio Mailbox

IZ3LSV

[San Dona' di P. JN]

 Login: GUEST





  
LU9DCE > KEP      23.12.19 17:04l 246 Lines 12149 Bytes #999 (0) @ WW
BID : 5714_LU9DCE
Read: GUEST
Subj: TLE 23 12
Path: IZ3LSV<IK6IHL<IK7NXU<HB9CSR<IW8PGT<IR2UBX<IW0QNL<JH4XSY<N3HYM<N7HPX<
      LU9DCE
Sent: 191223/1600Z 5714@LU9DCE.TOR.BA.ARG.SOAM LinBPQ6.0.19

            __    _  _  ___  ____   ___  ____    ____  ____  ____
           (  )  / )( \/ _ \(    \ / __)(  __)  (  _ \(  _ \/ ___)
           / (_/\) \/ (\__  )) D (( (__  ) _)    ) _ ( ) _ (\___ \
           \____/\____/(___/(____/ \___)(____)  (____/(____/(____/
               ESTACION DE PACKET RADIO - BUENOS AIRES (GF05OM)
                   BOLETINES INFORMATIVOS PROGRAMADOS (BIP)
                      LINUX - HELLOCODELINUX@GMAIL.COM
+----------------------------------------------------------------------------+
OSCAR 7
1  7530U 74089B   19356.92179441 -.00000045 +00000-0 +26890-5 0  9994
2  7530 101.7745 322.8486 0012272 347.3468 079.5579 12.53641227063749
OSCAR 11 (UoSAT 2)
1 14781U 84021B   19357.12483420  .00000067  00000-0  14347-4 0  9991
2 14781  97.5986  12.8451 0009859  68.2832 291.9431 14.83129620926549
OSCAR 19 (LUSAT)
1 20442U 90005G   19357.08423448 -.00000021  00000-0  85465-5 0  9991
2 20442  98.6711 298.9482 0011105 321.8918  38.1480 14.32940936563210
EYESAT A
1 22825U 93061C   19356.93979545 +.00000008 +00000-0 +21297-4 0  9996
2 22825 098.9169 349.9831 0008575 167.0679 193.0724 14.30074092368442
ITAMSAT
1 22826U 93061D   19356.68794734 +.00000007 +00000-0 +20496-4 0  9993
2 22826 098.9109 349.6934 0009288 157.0630 203.0968 14.30408582368634
RADIO ROSTO
1 23439U 94085A   19356.83021371 -.00000024 +00000-0 +51295-3 0  9998
2 23439 064.8127 173.4957 0145962 076.5637 285.1508 11.27569434028997
JAS 2
1 24278U 96046B   19357.07313473 -.00000042  00000-0 -92168-5 0  9990
2 24278  98.5639 125.3269 0351204 114.2546 249.5705 13.53094885153143
TECHSAT 1B
1 25397U 98043D   19356.84728372 -.00000020  00000-0  10358-4 0  9999
2 25397  98.7097 294.8818 0001059 160.4237 199.6982 14.23676485114507
ISS (ZARYA)
1 25544U 98067A   19357.55702490  .00001248  00000-0  29778-4 0  9999
2 25544  51.6419 142.5078 0007706  64.3288  55.1615 15.50128439204632
PCSAT
1 26931U 01043C   19357.07961033 -.00000039  00000-0  16736-4 0  9993
2 26931  67.0507 240.1228 0006992 263.8332  96.1973 14.30562400951779
SAUDISAT 1C
1 27607U 02058C   19356.87359982 -.00000023 +00000-0 +17528-4 0  9995
2 27607 064.5535 197.3055 0068909 219.4891 140.1180 14.75596715914524
CUTE-1
1 27844U 03031E   19356.93414004 +.00000052 +00000-0 +43166-4 0  9992
2 27844 098.6834 002.3425 0009412 203.9340 156.1401 14.22212139854864
CUBESAT XI 4
1 27848U 03031J   19356.97981604  .00000033  00000-0  35034-4 0  9999
2 27848  98.6906   2.9231 0009112 216.1928 143.8633 14.21802641854754
MOZHAYETS 4
1 27939U 03042A   19357.50644651  .00000119  00000-0  29899-4 0  9997
2 27939  98.0651 129.9710 0012797 188.0121 172.0880 14.66826097868071
CUBESAT XI 5
1 28895U 05043F   19356.88664585 +.00000112 +00000-0 +30332-4 0  9997
2 28895 097.9839 133.5129 0017974 119.2809 241.0192 14.63722957754631
CUTE-1.7+APD II
1 32785U 08021C   19356.85440633  .00000201  00000-0  27283-4 0  9992
2 32785  97.5596 347.8445 0013254   9.0301 351.1152 14.88392736631527
DELFI C3
1 32789U 08021G   19357.44431794  .00000605  00000-0  44001-4 0  9995
2 32789  97.4424  41.2409 0011797 195.6031 164.4835 15.07340368635249
SEEDS
1 32791U 08021J   19357.49570872  .00000288  00000-0  34517-4 0  9992
2 32791  97.5325 354.5725 0012716 338.5006  21.5678 14.90937543632092
YUBELEINY
1 32953U 08025A   19357.41342606  .00000037  00000-0  19437-3 0  9995
2 32953  82.5054  28.0180 0020339  81.3415 278.9962 12.43093121525636
PRISM (HITOMI)
1 33493U 09002B   19357.45213892 -.00000132  00000-0 -58533-5 0  9999
2 33493  98.1310 285.5897 0013979 284.2082  75.7585 14.96849970593231
KKS-1 (KISEKI)
1 33499U 09002H   19357.18577259  .00000081  00000-0  20008-4 0  9991
2 33499  98.3330 201.7418 0008615 337.1724  22.9100 14.75490131586879
SWISSCUBE
1 35932U 09051B   19357.44127210  .00000115  00000-0  36997-4 0  9998
2 35932  98.5996 169.1126 0006798 315.4592  44.6058 14.56342119544102
BEESAT
1 35933U 09051C   19356.74618135 +.00000097 +00000-0 +32880-4 0  9998
2 35933 098.6009 170.2249 0005232 334.9862 025.1080 14.56423948544037
ITUPSAT 1
1 35935U 09051E   19356.70592336  .00000069  00000-0  26982-4 0  9995
2 35935  98.6117 170.4051 0007513 330.1650  29.9117 14.55576430543844
XIWANG-1 (HOPE-1)
1 36122U 09072B   19357.16306526 -.00000038  00000-0  99321-5 0  9997
2 36122 100.0807 350.7825 0006942 272.8630  87.1701 13.16352639481546
TISAT 1
1 36799U 10035E   19357.16751254  .00000163  00000-0  22550-4 0  9997
2 36799  98.1753 155.8318 0012172 185.4005 174.7083 14.91231514512702
JUGNU
1 37839U 11058B   19357.12402292  .00000319  00000-0  28029-4 0  9990
2 37839  19.9613 278.1562 0018878 232.8564 154.2213 14.12667538423790
SRMSAT
1 37841U 11058D   19357.32301987  .00000309  00000-0  24455-4 0  9992
2 37841  19.9733 337.6066 0012083  97.9797  41.6040 14.10646279423217
M-CUBED/EXP-1 PRIME
1 37855U 11061F   19356.93339554  .00001137  00000-0  64314-4 0  9996
2 37855 101.7260 348.7851 0172107 241.6131 116.7638 15.05894819444957
HORYU 2
1 38340U 12025D   19356.84668013 +.00000124 +00000-0 +26087-4 0  9992
2 38340 098.3071 040.8284 0010411 244.7016 115.3114 14.75789931398353
STRAND 1
1 39090U 13009E   19357.12854380  .00000018  00000-0  21279-4 0  9994
2 39090  98.4685 199.7786 0010275  91.7186 268.5176 14.35110907357277
SOMP
1 39134U 13015E   19357.15903308  .00001275  00000-0  66307-4 0  9995
2 39134  64.8626 132.8944 0038248 272.2557  87.4191 15.20595249369099
BEESAT 3
1 39135U 13015F   19356.89128850  .00000878  00000-0  52270-4 0  9999
2 39135  64.8650 154.7225 0043338 275.2183  84.3998 15.17803552368653
BEESAT 2
1 39136U 13015G   19357.52717267  .00000922  00000-0  55662-4 0  9995
2 39136  64.8695 157.0564 0030887 281.7173  78.0487 15.17229029368666
CUBEBUG 1
1 39153U 13018D   19357.23367904  .00000158  00000-0  27552-4 0  9992
2 39153  97.9819  94.3520 0015844 313.7711  46.2189 14.80642404359565
ZACUBE
1 39417U 13066B   19357.51232693  .00000179  00000-0  28750-4 0  9999
2 39417  97.5610   0.4440 0059925 137.1151 223.4759 14.81195915328846
TRITON 1
1 39427U 13066M   19356.91375231 +.00000132 +00000-0 +29429-4 0  9992
2 39427 097.7012 322.9766 0112382 286.3990 072.4886 14.67922199325614
GOMX 1
1 39430U 13066Q   19357.43006159  .00000261  00000-0  55997-4 0  9996
2 39430  97.7713 301.8522 0151859  22.7836 338.0010 14.59328439323981
HUMSAT D
1 39433U 13066T   19357.09776077  .00000165  00000-0  21275-4 0  9999
2 39433  97.5309  36.7109 0031518  37.6707 322.6711 14.92332882331024
CUBEBUG 2
1 39440U 13066AA  19356.93903862  .00000151  00000-0  28058-4 0  9994
2 39440  97.6146 344.4446 0079731 195.7474 164.1256 14.75933439327597
FUNCUBE 1
1 39444U 13066AE  19356.73311202  .00000244  00000-0  36172-4 0  9996
2 39444  97.5573   1.8216 0059110 132.7798 227.8409 14.82031167327639
UWE-3
1 39446U 13066AG  19356.82561372  .00000169  00000-0  29002-4 0  9993
2 39446  97.5873 351.5125 0070246 168.2371 192.0503 14.78467707326918
SPROUT
1 39770U 14029E   19357.31807961  .00000490  00000-0  60065-4 0  9996
2 39770  97.8914  99.4962 0009006 182.2679 177.8498 14.87548584302727
UNISAT 6
1 40012U 14033C   19356.89816495 +.00000141 +00000-0 +28349-4 0  9998
2 40012 097.7305 215.1756 0057478 212.6454 147.1197 14.74047201296267
DUCHIFAT 1
1 40021U 14033M   19357.35783539  .00000398  00000-0  46308-4 0  9991
2 40021  97.9330 282.6337 0013469 146.1689 214.0391 14.90768676299508
QB50P1
1 40025U 14033R   19357.52702228  .00000231  00000-0  30509-4 0  9992
2 40025  97.9105 276.9187 0012845 155.5692 204.6136 14.89041910299275
CHUBUSAT 1
1 40300U 14070C   19357.45787106  .00000641  00000-0  30667-4 0  9999
2 40300  97.3098  66.7222 0021079 113.5458 257.4057 15.22297924284586
NUDT-PHONESAT
1 40900U 15049B   19357.54760260  .00002111  00000-0  91535-4 0  9999
2 40900  97.4355   5.0879 0011156 243.0839 235.6636 15.23424941236254
ZDPS 2A
1 40901U 15049C   19357.36877841  .00000730  00000-0  39214-4 0  9995
2 40901  97.4618   0.5219 0011802 270.6338 199.9939 15.17990382235700
ZDPS 2B
1 40902U 15049D   19357.41189380  .00001252  00000-0  65022-4 0  9992
2 40902  97.4578 357.9156 0011801 267.9409 202.9410 15.17902800235686
XW-2A
1 40903U 15049E   19357.42916964  .00001871  00000-0  45152-4 0  9999
2 40903  97.3153  41.0553 0013214 178.0923 238.7924 15.42448967239183
KAITUO 1A
1 40904U 15049F   19357.46096947  .00000685  00000-0  39605-4 0  9992
2 40904  97.4721 356.3257 0013046 279.3477 206.9198 15.15546178235438
OBJECT G
1 40905U 15049G   19357.40862959  .00000498  00000-0  30665-4 0  9990
2 40905  97.4787 353.6367 0014155 275.2485 190.8759 15.14421797235284
XW-2C
1 40906U 15049H   19357.41885951  .00000607  00000-0  35146-4 0  9990
2 40906  97.4729 356.4593 0013112 268.8242 197.2722 15.15869090235435
XW-2D
1 40907U 15049J   19357.44843669  .00000500  00000-0  29428-4 0  9992
2 40907  97.4708 356.1749 0012623 266.3787 254.9750 15.16075204235457
LILACSAT 2
1 40908U 15049K   19357.45301571  .00000344  00000-0  22588-4 0  9991
2 40908  97.4853 354.7761 0014248 274.9853 215.1269 15.13919721235217
XW-2F
1 40910U 15049M   19357.48991815  .00001077  00000-0  56860-4 0  9997
2 40910  97.4655 358.5106 0013074 256.1741 255.4096 15.17609724235497
XW-2B
1 40911U 15049N   19357.41374649  .00000762  00000-0  43072-4 0  9992
2 40911  97.4731 356.8211 0012371 266.8153 199.3860 15.16005301235344
KAITUO 1B
1 40912U 15049P   19357.29376684  .00001132  00000-0  55741-4 0  9998
2 40912  97.4500   2.2515 0013428 234.3061 246.9008 15.19959919235800
TIANWANG 1C (TW-1C)
1 40926U 15051B   19357.58313554  .00013596  00000-0  17010-3 0  9998
2 40926  97.1133  43.7311 0008193  42.9250 115.1592 15.59882389239409
